Starlink 30069

operational
NORAD ID: 56834 Int'l Des: 2023-079 Owner: SPXS Country: US Constellation: starlink
LEOCIRCULAR

About Starlink 30069

Description loading...

Live Position

Loading 3D Globe...

Upcoming Passes

Altitude History

Altitude vs Time

uPlot chart will show altitude changes over time

Two-Line Element Set

1 56834U 23079M 25351.95778545 .00002188 00000-0 17703-3 0 9993
2 56834 43.0015 191.1423 0001079 256.6083 103.4640 15.02529004140594
Epoch: Dec 17, 2025 • Age: 27 hours

Current Status

Altitude 568.3 km
Velocity 7.58 km/s
Sub-Earth Point -34.59°S, 58.85°W
Launch Date Jun 4, 2023
Age 2.5 years
Type internet

Technical Details

Classification Payload
Mass 730.00 kg
Dry Mass 700.00 kg
Total Mass 730.00 kg
Length 0.30 m
Diameter 4.10 m
Span 29.00 m
Shape Box + pan
Manufacturer SPXS
Bus Type Starlink V2M
Phase Status In Orbit
Owner/State SPXS/US

Large Constellations

Loading constellations...